TimeCDT,TemperatureF,Dew PointF,Humidity,Sea Level PressureIn,VisibilityMPH,Wind Direction,Wind SpeedMPH,Gust SpeedMPH,PrecipitationIn,Events,Conditions,WindDirDegrees,DateUTC
12:15 AM,66.6,56.1,69,30.05,10.0,SE,4.6,-,N/A,,Clear,140,2013-07-29 05:15:00
12:35 AM,66.4,56.7,71,30.05,10.0,ESE,5.8,-,N/A,,Clear,120,2013-07-29 05:35:00
12:55 AM,66.2,56.7,71,30.06,10.0,SSE,4.6,-,N/A,,Clear,160,2013-07-29 05:55:00
1:15 AM,65.5,56.7,73,30.06,10.0,South,5.8,-,N/A,,Clear,170,2013-07-29 06:15:00
1:35 AM,65.3,57.2,75,30.06,10.0,SSE,3.5,-,N/A,,Scattered Clouds,160,2013-07-29 06:35:00
1:55 AM,65.3,58.1,77,30.06,10.0,SE,4.6,-,N/A,,Mostly Cloudy,140,2013-07-29 06:55:00
2:15 AM,64.8,58.8,81,30.05,10.0,East,4.6,-,N/A,,Overcast,100,2013-07-29 07:15:00
2:55 AM,64.6,59.5,84,30.04,10.0,SE,3.5,-,N/A,,Overcast,130,2013-07-29 07:55:00
3:15 AM,64.6,59.5,84,30.04,10.0,ESE,3.5,-,N/A,,Overcast,120,2013-07-29 08:15:00
3:55 AM,64.4,60.3,86,30.04,10.0,ESE,3.5,-,N/A,,Overcast,120,2013-07-29 08:55:00
4:15 AM,64.0,61.7,92,30.04,7.0,SE,5.8,-,0.01,Rain,Light Rain,140,2013-07-29 09:15:00
4:55 AM,62.6,62.2,99,30.04,5.0,SE,4.6,-,0.14,Rain,Rain,130,2013-07-29 09:55:00
5:15 AM,62.6,62.4,99,30.04,4.0,ESE,3.5,-,0.05,Rain,Heavy Rain,110,2013-07-29 10:15:00
5:35 AM,62.6,62.6,100,30.04,3.0,East,3.5,-,0.18,Rain,Rain,100,2013-07-29 10:35:00
5:55 AM,62.8,62.8,100,30.04,7.0,East,4.6,-,0.21,Rain,Light Rain,100,2013-07-29 10:55:00
6:15 AM,63.0,63.0,100,30.04,5.0,ESE,3.5,-,0.02,Rain,Rain,110,2013-07-29 11:15:00
6:35 AM,63.1,63.1,100,30.05,3.0,Calm,Calm,-,0.08,Rain,Heavy Rain,0,2013-07-29 11:35:00
6:55 AM,63.5,63.5,100,30.04,4.0,ESE,3.5,-,0.16,Rain,Rain,120,2013-07-29 11:55:00
7:15 AM,63.7,63.7,100,30.04,1.8,SE,6.9,-,0.12,Rain,Heavy Rain,130,2013-07-29 12:15:00
7:35 AM,63.7,63.7,100,30.04,3.0,SE,8.1,-,0.27,Rain,Rain,130,2013-07-29 12:35:00
7:55 AM,63.5,63.5,100,30.03,3.0,ESE,11.5,-,0.36,Rain,Rain,110,2013-07-29 12:55:00
8:15 AM,63.0,63.0,100,30.04,1.8,SE,10.4,-,0.16,Rain,Heavy Rain,130,2013-07-29 13:15:00
8:35 AM,62.6,62.6,100,30.04,2.5,SE,12.7,-,0.29,Rain,Rain,130,2013-07-29 13:35:00
8:55 AM,62.1,62.1,100,30.03,2.0,SE,12.7,19.6,0.42,Rain,Rain,130,2013-07-29 13:55:00
9:15 AM,61.7,61.7,100,30.04,1.8,SE,11.5,16.1,0.12,Rain,Heavy Rain,140,2013-07-29 14:15:00
9:35 AM,61.7,61.7,100,30.04,1.8,ESE,5.8,-,0.25,Rain,Heavy Rain,110,2013-07-29 14:35:00
9:55 AM,61.7,61.7,100,30.03,1.0,ESE,9.2,16.1,0.58,Rain,Heavy Rain,120,2013-07-29 14:55:00
10:15 AM,62.2,62.2,100,30.04,5.0,SE,9.2,-,0.04,Rain,Light Rain,140,2013-07-29 15:15:00
10:35 AM,62.6,62.6,100,30.04,3.0,SSE,8.1,-,0.06,Rain,Rain,150,2013-07-29 15:35:00
10:55 AM,63.0,63.0,100,30.04,3.0,SE,9.2,-,0.08,,Drizzle,140,2013-07-29 15:55:00
11:15 AM,63.0,63.0,100,30.04,2.0,SE,9.2,-,0.02,,Drizzle,140,2013-07-29 16:15:00
11:35 AM,63.0,63.0,100,30.04,2.0,SE,8.1,-,0.09,Rain,Rain,140,2013-07-29 16:35:00
11:55 AM,63.1,63.1,100,30.03,2.5,SE,8.1,-,0.14,Rain,Rain,130,2013-07-29 16:55:00
12:15 PM,63.3,63.3,100,30.03,2.5,ESE,8.1,-,0.01,,Light Drizzle,120,2013-07-29 17:15:00
12:35 PM,63.5,63.5,100,30.03,2.0,SE,6.9,-,0.05,Rain,Rain,130,2013-07-29 17:35:00
12:55 PM,63.5,63.5,100,30.03,5.0,SE,9.2,-,0.08,,Light Drizzle,130,2013-07-29 17:55:00
1:15 PM,63.9,63.9,100,30.03,10.0,SE,9.2,-,N/A,,Overcast,130,2013-07-29 18:15:00
1:35 PM,64.2,64.2,100,30.03,7.0,ESE,8.1,-,N/A,,Light Drizzle,120,2013-07-29 18:35:00
1:55 PM,64.6,64.6,100,30.02,10.0,ESE,8.1,-,N/A,,Overcast,120,2013-07-29 18:55:00
2:15 PM,64.9,64.9,100,30.02,10.0,ESE,9.2,-,N/A,,Overcast,120,2013-07-29 19:15:00
2:35 PM,65.3,65.3,100,30.02,10.0,ESE,5.8,-,N/A,,Overcast,120,2013-07-29 19:35:00
2:55 PM,66.2,65.8,99,30.02,10.0,SE,10.4,-,N/A,,Overcast,130,2013-07-29 19:55:00
3:15 PM,66.6,66.2,99,30.02,10.0,ESE,9.2,-,N/A,,Overcast,120,2013-07-29 20:15:00
3:35 PM,66.7,66.0,98,30.02,10.0,ESE,8.1,-,N/A,,Overcast,120,2013-07-29 20:35:00
3:55 PM,67.6,66.6,96,30.01,10.0,SE,8.1,-,N/A,,Overcast,130,2013-07-29 20:55:00
4:15 PM,68.5,66.7,94,30.01,10.0,ESE,5.8,-,N/A,,Overcast,120,2013-07-29 21:15:00
4:35 PM,68.4,66.7,95,30.01,10.0,ESE,9.2,-,N/A,,Overcast,120,2013-07-29 21:35:00
4:55 PM,68.7,66.7,93,30.00,10.0,ESE,9.2,-,N/A,,Overcast,120,2013-07-29 21:55:00
5:15 PM,69.8,67.1,91,30.00,10.0,SE,11.5,-,N/A,,Overcast,130,2013-07-29 22:15:00
5:35 PM,69.6,67.1,92,29.99,10.0,ESE,6.9,-,N/A,,Overcast,110,2013-07-29 22:35:00
5:55 PM,69.8,67.1,91,30.00,10.0,ESE,9.2,-,N/A,,Overcast,110,2013-07-29 22:55:00
6:15 PM,69.3,66.9,92,29.99,10.0,SE,6.9,-,N/A,,Overcast,130,2013-07-29 23:15:00
6:35 PM,68.9,66.7,93,29.99,10.0,ESE,8.1,-,N/A,,Overcast,120,2013-07-29 23:35:00
6:55 PM,68.0,67.1,97,30.00,5.0,ESE,6.9,-,N/A,,Light Drizzle,120,2013-07-29 23:55:00
7:15 PM,67.6,67.1,98,30.00,10.0,ESE,6.9,-,N/A,,Overcast,110,2013-07-30 00:15:00
7:35 PM,67.5,67.1,99,30.00,7.0,East,5.8,-,N/A,,Overcast,100,2013-07-30 00:35:00
7:55 PM,67.5,67.3,99,30.01,10.0,East,6.9,-,N/A,,Overcast,100,2013-07-30 00:55:00
8:15 PM,67.3,67.1,99,30.01,10.0,East,4.6,-,N/A,,Overcast,90,2013-07-30 01:15:00
8:35 PM,67.5,67.1,99,30.01,10.0,East,4.6,-,N/A,,Overcast,90,2013-07-30 01:35:00
8:55 PM,67.1,67.1,100,30.01,10.0,ESE,4.6,-,N/A,,Overcast,110,2013-07-30 01:55:00
9:15 PM,67.1,67.1,100,30.01,10.0,ESE,4.6,-,N/A,,Overcast,120,2013-07-30 02:15:00
9:35 PM,67.1,67.1,100,30.02,10.0,ESE,4.6,-,N/A,,Overcast,110,2013-07-30 02:35:00
9:55 PM,67.1,67.1,100,30.02,5.0,ESE,4.6,-,N/A,,Overcast,120,2013-07-30 02:55:00
10:15 PM,67.1,67.1,100,30.02,10.0,Calm,Calm,-,N/A,,Overcast,0,2013-07-30 03:15:00
10:35 PM,67.1,67.1,100,30.02,10.0,ENE,3.5,-,N/A,,Overcast,60,2013-07-30 03:35:00
10:55 PM,67.1,67.1,100,30.03,10.0,East,3.5,-,N/A,,Overcast,80,2013-07-30 03:55:00
11:15 PM,67.1,67.1,100,30.03,7.0,NE,3.5,-,N/A,,Overcast,40,2013-07-30 04:15:00
11:35 PM,67.1,67.1,100,30.03,4.0,NE,4.6,-,N/A,,Overcast,50,2013-07-30 04:35:00
11:55 PM,67.1,67.1,100,30.03,1.0,ENE,5.8,-,N/A,,Overcast,60,2013-07-30 04:55:00